Greenland, AR

2:29 PM CST on December 06, 2016 (GMT -0600)
Drake

Weather History for KFYV - August, 2013

Change the Weather History Date:

Thursday, August 22, 2013

  Actual Average Record
Temperature  
Mean Temperature 76 °F 77 °F  
Max Temperature 91 °F 89 °F 99 °F (1983)
Min Temperature 60 °F 65 °F 45 °F (1956)
Cooling Degree Days 11 12  
Month to date cooling degree days 219 280  
Year to date cooling degree days 1000 1029  
Since 1 June cooling degree days 864 916  
Growing Degree Days 25 (Base 50)    
Moisture  
Dew Point 64 °F    
Average Humidity 71    
Maximum Humidity 100    
Minimum Humidity 41    
Precipitation  
Precipitation 0.00 in 0.10 in 4.70 in (1952)
Month to date precipitation 2.82 2.27  
Year to date precipitation 31.07 30.92  
Sea Level Pressure  
Sea Level Pressure 30.08 in    
Wind  
Wind Speed 1 mph (South)    
Max Wind Speed 10 mph    
Max Gust Speed 14 mph    
Visibility 7 miles    
Events Fog    
T = Trace of Precipitation, MM = Missing Value Source: NWS Daily Summary

Daily Weather History Graph

Daily Weather History Graph

Search for Another Location

Airport or City:

Trip Planner

Search our weather history database for the weather conditions in past years. The results will help you decide how hot, cold, wet, or windy it might be!

Date:

Astronomy

Aug. 22, 2013 Rise Set
Actual Time 6:40 AM CDT 7:57 PM CDT
Civil Twilight 6:14 AM CDT 8:24 PM CDT
Nautical Twilight 5:42 AM CDT 8:55 PM CDT
Astronomical Twilight 5:08 AM CDT 9:29 PM CDT
Moon 8:48 PM CDT (8/22) 8:25 AM CDT (8/22)
Length of Visible Light 14h 10m
Length of Day
13h 16m
Waning Gibbous, 96% of the Moon is Illuminated
Aug 22
Waning Gibbous
Aug 28
Last Quarter
Sep 5
New
Sep 12
First Quarter
Sep 19
Full

Hourly Weather History & Observations

Time (CDT) Temp. Heat Index Dew Point Humidity Pressure Visibility Wind Dir Wind Speed Gust Speed Precip Events Conditions
12:53 AM 64.9 °F - 64.0 °F 97% 30.08 in 7.0 mi Calm Calm - N/A   Clear
1:53 AM 63.0 °F - 63.0 °F 100% 30.08 in 5.0 mi Calm Calm - N/A   Clear
2:09 AM 62.6 °F - 62.6 °F 100% 30.12 in 2.0 mi Calm Calm - N/A   Clear
2:20 AM 62.6 °F - 62.6 °F 100% 30.12 in 5.0 mi Calm Calm - N/A   Clear
2:53 AM 63.0 °F - 62.1 °F 97% 30.09 in 4.0 mi Calm Calm - N/A   Clear
3:53 AM 62.1 °F - 62.1 °F 100% 30.08 in 5.0 mi Calm Calm - N/A   Clear
4:53 AM 61.0 °F - 61.0 °F 100% 30.08 in 6.0 mi Calm Calm - N/A   Clear
5:53 AM 62.1 °F - 61.0 °F 96% 30.09 in 6.0 mi Calm Calm - N/A   Clear
6:53 AM 61.0 °F - 60.1 °F 97% 30.11 in 6.0 mi Calm Calm - N/A   Clear
6:59 AM 60.8 °F - 60.8 °F 100% 30.14 in 1.8 mi Calm Calm - N/A   Clear
7:08 AM 60.8 °F - 60.8 °F 100% 30.14 in 0.5 mi Calm Calm - N/A Fog Fog
7:16 AM 60.8 °F - 60.8 °F 100% 30.14 in 2.0 mi Calm Calm - N/A   Clear
7:27 AM 62.6 °F - 60.8 °F 94% 30.14 in 7.0 mi Calm Calm - N/A   Clear
7:53 AM 64.0 °F - 63.0 °F 96% 30.12 in 7.0 mi Calm Calm - N/A   Clear
8:53 AM 70.0 °F - 64.9 °F 84% 30.13 in 8.0 mi Calm Calm - N/A   Clear
9:53 AM 81.0 °F 84.4 °F 70.0 °F 69% 30.11 in 10.0 mi South 6.9 mph - N/A   Clear
10:53 AM 84.9 °F 87.1 °F 66.0 °F 53% 30.11 in 10.0 mi South 8.1 mph - N/A   Clear
11:53 AM 88.0 °F 90.7 °F 66.9 °F 49% 30.09 in 10.0 mi South 9.2 mph - N/A   Clear
12:53 PM 89.1 °F 89.3 °F 62.1 °F 40% 30.07 in 10.0 mi Calm Calm - N/A   Clear
1:53 PM 88.0 °F 88.7 °F 63.0 °F 43% 30.06 in 10.0 mi Calm Calm - N/A   Overcast
2:53 PM 88.0 °F 89.3 °F 64.0 °F 45% 30.05 in 10.0 mi Calm Calm - N/A   Mostly Cloudy
3:53 PM 90.0 °F 90.6 °F 63.0 °F 40% 30.04 in 10.0 mi Calm Calm - N/A   Mostly Cloudy
4:53 PM 88.0 °F 90.3 °F 66.0 °F 48% 30.03 in 10.0 mi Variable 3.5 mph - N/A   Mostly Cloudy
5:53 PM 86.0 °F 88.2 °F 66.0 °F 51% 30.03 in 10.0 mi Calm Calm - N/A   Overcast
6:53 PM 84.0 °F 87.8 °F 69.1 °F 61% 30.02 in 10.0 mi Calm Calm - N/A   Overcast
7:53 PM 80.1 °F 83.8 °F 72.0 °F 76% 30.02 in 10.0 mi Calm Calm - N/A   Clear
8:53 PM 75.0 °F - 71.1 °F 87% 30.03 in 10.0 mi Calm Calm - N/A   Clear
9:53 PM 72.0 °F - 69.1 °F 91% 30.05 in 9.0 mi Calm Calm - N/A   Clear
10:53 PM 70.0 °F - 68.0 °F 93% 30.06 in 7.0 mi Calm Calm - N/A   Clear
11:53 PM 69.1 °F - 68.0 °F 96% 30.05 in 7.0 mi Calm Calm - N/A   Clear